Regional Weather Roundup
Issued by NWS

Home | Current Version | Previous Version | Graphics & Text | Print | Product List | Glossary Off
Versions: 1 2 3 4 5 6 7 8 9 10 11 12 13 14 15 16 17 18 19 20 21 22 23 24 25 26 27 28 29 30 31 32 33 34 35 36 37 38 39 40 41 42 43 44 45 46 47 48 49 50

000
ASUS43 KFSD 292202
RWRSD

WEATHER ROUNDUP FOR SOUTH DAKOTA
NATIONAL WEATHER SERVICE SIOUX FALLS SD
500 PM CDT SUN MAR 29 2015

NOTE: "FAIR" INDICATES FEW OR NO CLOUDS BELOW 12,000 FEET WITH NO
SIGNIFICANT WEATHER AND/OR OBSTRUCTIONS TO VISIBILITY.


SDZ001>005-009-010-012>017-292300-
NORTHWEST AND NORTH CENTRAL SOUTH DAKOTA

CITY           SKY/WX    TMP DP  RH WIND       PRES   REMARKS
BUFFALO          N/A     62  27  26 NW24      29.99F
FAITH            N/A     61  28  28 NW14G25   30.05F
MOBRIDGE       SUNNY     61  29  29 NW18G24   30.00F
$$

SDZ012>016-024>037-041>051-057-063-072>074-292300-
SOUTHWEST AND SOUTH CENTRAL SOUTH DAKOTA

CITY           SKY/WX    TMP DP  RH WIND       PRES   REMARKS
RAPID CTY ARPT PTSUNNY   63  26  24 NW12G21   30.08S
PIERRE         SUNNY     61  24  24 NW17G25   30.05F
CUSTER         MOSUNNY   53  19  26 W12       30.14S
ELLSWORTH AFB  MOSUNNY   62  26  25 N20       30.06F
PHILIP         SUNNY     65  27  23 N21       30.06F
PINE RIDGE     SUNNY     62  26  25 VRB7      30.10F
WINNER         FAIR      63  18  17 NW18      30.08F
$$

SDZ004>011-016>023-039-040-292300-
NORTHEAST SOUTH DAKOTA

CITY           SKY/WX    TMP DP  RH WIND       PRES   REMARKS
ABERDEEN       SUNNY     60  22  23 NW26      30.01S
WATERTOWN      SUNNY     55  23  28 NW24G37   29.98R
SISSETON         N/A     56  26  31 NW29G41   29.93S
$$

SDZ017-020-022-023-036>040-048>070-292300-
SOUTHEAST SOUTH DAKOTA

CITY           SKY/WX    TMP DP  RH WIND       PRES   REMARKS
SIOUX FALLS    SUNNY     59  22  24 NW24G33   30.00R
HURON          SUNNY     60  17  18 NW28G35   30.01F
MITCHELL       SUNNY     61  17  18 NW28G33   30.04S
YANKTON        SUNNY     61  21  21 NW26G36   30.04F
$$

ABBREVIATIONS USED IN REMARKS
   TC - TEMPERATURE IN CELSIUS
  WCI - WIND CHILL INDEX
   HX - HEAT INDEX
  VSB - VISIBILITY



USA.gov is the U.S. government's official web portal to all federal, state and local government web resources and services.